User: anonymous   Login
Location: Croagnes
(43.9363°N, 5.3265°E)
Time: 02:35:48
(UTC+00:00)
Language:

Meteor 1-16 Rocket - Orbit

View from above orbital plane
View from above orbital plane
View from above satellite
View from above satellite

Ground track
Ground track

The orbit data is extracted from the following two-line orbital elements,

1 07210U 74011B   21127.38737903  .00000087  00000-0  38993-4 0  9997
2 07210  81.2347  96.9566 0079784 299.5288  59.7946 14.13106744430295
Epoch (UTC): 07 May 2021 09:17:49
Eccentricity: 0.0079784
inclination: 81.2347°
perigee height: 791 km
apogee height: 906 km
right ascension of ascending node: 96.9566°
argument of perigee: 299.5288°
revolutions per day: 14.13106744
mean anomaly at epoch: 59.7946°
orbit number at epoch: 43029

The dashed part of the orbit path shows where the satellite is in the earth's shadow,  

DLR